Location: Cañada de la Miga
(34.7595°N, 106.2317°W)
Time: 08:12:01
(UTC+00:00)

Tiros 1 - Visible Passes

Search period start: 03 December 2021 00:00
Search period end: 13 December 2021 00:00
Orbit: 630 x 664 km, 48.4° (Epoch: 02 December)

Date Brightness Start Highest point End Pass type
(mag) Time Alt. Az. Time Alt. Az. Time Alt. Az.
03 Dec 8.2 00:23:44 10° SSW 00:27:44 29° SE 00:31:46 10° ENE visible
03 Dec 7.9 02:05:17 10° WSW 02:09:29 46° NW 02:09:29 46° NW visible
04 Dec 7.1 00:48:51 10° SW 00:53:27 73° SE 00:56:51 18° ENE visible
04 Dec 9.2 02:32:03 10° W 02:34:31 22° NW 02:34:31 22° NW visible
05 Dec 7.7 01:14:53 10° WSW 01:19:24 51° NNW 01:21:49 25° NNE visible
05 Dec 10.1 02:59:11 10° WNW 02:59:29 11° NW 02:59:29 11° NW visible
06 Dec 8.5 01:41:36 10° W 01:45:35 28° NNW 01:46:43 25° N visible
07 Dec 7.6 00:24:30 10° WSW 00:29:02 55° NNW 00:33:37 10° NE visible
07 Dec 9.2 02:08:42 10° WNW 02:11:35 19° NNW 02:11:35 19° NNW visible
08 Dec 8.5 00:51:09 10° W 00:55:12 29° NNW 00:58:45 13° NNE visible
08 Dec 9.8 02:35:49 10° NW 02:36:25 12° NW 02:36:25 12° NW visible
09 Dec 9.0 01:18:14 10° WNW 01:21:36 19° NNW 01:23:33 15° NNE visible
10 Dec 9.2 01:45:23 10° NW 01:48:09 15° N 01:48:20 15° N visible
11 Dec 8.9 00:27:45 10° WNW 00:31:11 20° NNW 00:34:37 10° NNE visible
11 Dec 9.5 02:12:02 10° NNW 02:13:07 13° NNW 02:13:07 13° NNW visible
12 Dec 9.2 00:54:55 10° NW 00:57:43 16° N 01:00:15 11° NNE visible
